Tracking 18673 objects as of 26-June-2017
HD Live streaming from Space Station
objects crossing your sky now

SL-8 R/B

Track SL-8 R/B now!
10-day predictions


NORAD ID: 24306
Int'l Code: 1996-052C
Perigee: 970.0 km
Apogee: 1,008.2 km
Inclination: 82.9 °
Period: 104.7 minutes
Semi major axis: 7360 km
RCS: 5.014 m2 (large)
Launch date: September 5, 1996
Source: Commonwealth of Independent States (former USSR) (CIS)
Launch site: PLESETSK MISSILE AND SPACE COMPLEX (PKMTR)

Note: This is a ROCKET BODY
Your satellite tracking list
Your tracking list is empty





NASA's NSSDC Master Catalog

Two Line Element Set (TLE):
1 24306U 96052C   17176.57392574 +.00000006 +00000-0 -93830-5 0  9996
2 24306 082.9340 334.2880 0026001 359.4787 000.6337 13.74918615043644
Source of the keplerian elements: AFSPC